SCOUT B DEB, 2498

Orbit data source: Space-Track

SCOUT B DEB, 2498 is space debris in LEO originally from a launch on Fri, 10 Jun 1966 UTC launched from the Wallops Island (WLPIS). Debris objects in space refer to the collection of defunct objects orbiting the Earth. Examples of debris include non-operational satellites, rocket bodies, and fragments generated from explosions, collisions, or faulty payload assembly.

Loading next visibility...
Identifier
2498, 1966-052C
Orbit
LEO
Country
Flag of USUS
Related business
Manufacturer
Unknown
Mission
Spacecraft
Bus & Motor
Unknown
Mass
Unknown
Launch date (UTC)
1966-06-10 (59 years ago)
Launch vehicle
Unknown
Launch site
Wallops Island (WLPIS)
Object type
Payload
Rocket body
Debris
Shape & HBR
Unknown shape, 0.1 m
Radar Cross Section
Small (<0.1 m²)

Expand to show TLE details & history
Last TLE update: 2 days ago

TLE from 2 days ago
0 SCOUT B DEB
1 02498U 66052C   25311.50036278  .00000262  00000-0  28028-3 0  9998
2 02498  40.6337  29.1705 2067850  72.4300 309.0650 10.56265638453429
Epoch: 2025-11-07T12:00Z
TLE epoch observation values (Epoch: 2025-11-07T12:00:31.344Z)
Latitude
-0.00006°
Longitude
162.0964°
Altitude
1,525.41 km
Speed
7.448 km/s
True Right ascension
01h 56m 40s
True Declination
0° 00' 00"
Sunlit
Object was in full shadow at epoch
Visualization orbit readout
Latitude
Unknown
Longitude
Unknown
Altitude
Unknown
Speed
Unknown
Apparent Right ascension
Unknown
Apparent Declination
Unknown
Sunlit
N/A
Visualization observer readout
Local Sidereal Time
22:28:02
Azimuth
Unknown
Elevation
Unknown
Doppler factor
Unknown
Orbital elements
Apogee altitude
4,213.094 km
Perigee altitude
583.437 km
Semi-major axis
8,776.402 km
Eccentricity
0.20679
Inclination
40.6337°
RAAN
29.1705°
Arg. of periapsis
72.43°
True anomaly
287.6401°
Mean anomaly
309.065°
Eccentric anomaly
298.66964°
Mean motion
2.63978 °/min
Orbital period
136.37 mins
BSTAR
0.00028028
Loading maneuver chart data...
Computing Atmospheric mass density...
Loading historical data...
Loading historical data...
Loading historical data...
Loading historical data...
Loading historical data...
Loading historical data...
Loading historical data...
Other satellites on launch #52 in the year 1966 (1966-06-10 UTC)

Documentation

Showing up to 5 results
|